Printer-friendly version

IAU Minor Planet Center

Minor Planet Center

MPEC 2002-T55 : 2002 QE15

The following Minor Planet Electronic Circular may be linked-to from your own Web pages, but must not otherwise be redistributed electronically.


Read MPEC 2002-T54 Read MPEC 2002-T56


M.P.E.C. 2002-T55                                Issued 2002 Oct.  9, 19:02 UT

     The Minor Planet Electronic Circulars contain information on unusual
         minor planets and routine data on comets.  They are published
   on behalf of Commission 20 of the International Astronomical Union by the
          Minor Planet Center, Smithsonian Astrophysical Observatory,
                          Cambridge, MA 02138, U.S.A.

             Prepared using the Tamkin Foundation Computer Network

                              MPC@CFA.HARVARD.EDU
          URL http://cfa-www.harvard.edu/iau/mpc.html  ISSN 1523-6714

                                   2002 QE15

                           Revision to MPEC 2002-Q39

Observations:
     K02Q15E 1 1993 04 20.66997 15 06 24.27 -22 25 19.6                      260
     K02Q15E 1 1993 04 20.70469 15 06 21.61 -22 24 44.5                      260
     K02Q15E 1 1993 04 30.63855 14 53 00.73 -19 25 49.5                      413
     K02Q15E 1 1993 04 30.65244 14 52 59.61 -19 25 33.2                      413

Observer details:
260 Siding Spring-DSS.  Trail located and measured by DANEOPS (R. Stoss).
    1.2-m Schmidt.
413 Siding Spring.  Observer P. Cass.  Trail located and measured by R. H.
    McNaught.  1.0-m f/8 reflector + CCD.

First and last observations above in comparison with prediction:
Residuals in seconds of arc (or two decimals in degrees) and reference
930420 260 4.59+ 0.96+    930430 413 4.78+ 0.87+    MPO 35625

Orbital elements:
2002 QE15
Epoch 2002 Nov. 22.0 TT = JDT 2452600.5                 MPC
M  11.04286              (2000.0)            P               Q
n   0.45791599     Peri.  160.33465     +0.86339171     -0.36992076
a   1.6670380      Node   226.48489     +0.37591764     +0.92521707
e   0.3445988      Incl.   28.23617     +0.33651253     -0.08445125
P   2.15           H   16.3           G   0.15           U   2
Residuals in seconds of arc
930420 260  0.1-  0.2-    020830 157  1.2+  0.2+    020917 711  0.3-  0.2-
930420 260  0.5+  0.2+    020831 670  0.6+  0.1-    020917 711  0.4-  0.2-
930430 413  0.8-  0.1+    020831 670  0.1+  0.2+    020917 240  0.1-  0.4-
930430 413  0.4+  0.3+    020831 848  0.5-  0.6+    020917 240  0.0   0.2-
020826 704  0.3+  1.0-    020831 670  0.2+  0.5+    020917 240  0.1+  0.0
020826 704  0.0   0.7-    020831 848  1.1+  0.9+    020918 118  0.0   0.5-
020826 704  0.4+  0.8-    020831 670  0.4+  0.0     020918 118  0.2+  0.0
020826 704  0.5+  1.0-    020831 848  0.4+  0.5-    020918 118  0.0   0.3-
020826 704  0.1-  1.4-    020831 941  0.7-  0.1+    020919 941  0.4-  0.4-
020826 118  0.2-  0.8+    020831 941  0.5-  0.2+    020919 941  0.3-  0.6-
020826 118  0.5-  0.4+    020831 941  0.0   0.3+    020919 941  0.6-  0.3-
020826 118  0.6-  1.0+    020831 941  0.2+  0.4+    020919 941  0.0   0.3-
020826 557  0.1+  0.2+    020831 941  0.1+  0.4+    020919 941  0.6-  0.3-
020826 941  0.2-  0.5+    020831 J95  0.5+  0.1+    020921 649  0.2-  0.2-
020826 118  0.8-  0.4+    020831 J95  0.3-  0.1+    020921 649  0.1+  0.1-
020826 941  0.8-  0.7+    020831 J95  0.3+  0.0     020921 649  0.1+  0.1+
020826 557  0.2+  0.0     020902 848  0.1+  0.3-    020921 941  0.3+  0.2-
020826 941  1.6-  1.3+    020902 848  0.5+  0.7-    020921 941  0.1-  0.4-
020826 557  0.1+  0.1+    020902 848  1.0-  0.8-    020921 941  0.2-  0.4-
020826 941  1.8-  1.6+    020902 118  0.8+  0.5-    020921 941  0.3-  0.2-
020826 557  0.3-  0.4+    020902 557  0.4+  0.3-    020921 941  0.2-  0.3-
020827 704  0.3+  0.0     020902 628  0.1+  0.1-    020922 170  1.8-  0.8-
020827 704  0.0   0.3+    020902 628  0.2+  0.0     020922 170  1.0-  1.5-
020827 704  0.6+  0.0     020902 628  0.3+  0.1+    020923 649  0.1+  0.3-
020827 704  0.0   0.3+    020902 628  0.1+  0.1+    020923 649  0.0   0.3-
020827 704  0.4+  0.1+    020902 557  0.2+  0.0     020923 649  0.1+  0.3-
020827 704  0.1-  0.3+    020902 557  0.1+  0.0     020924 704  0.4-  0.4+
020827 670  0.1-  0.0     020902 118  0.2+  0.2-    020924 704  0.1+  0.1+
020827 704  0.4+  0.1-    020902 118  0.3+  0.3-    020924 704  0.1-  0.0
020827 704  0.2-  0.4+    020903 557  0.2+  0.0     020924 704  0.2+  0.2-
020827 704  0.1+  0.3-    020903 557  0.1+  0.1+    020926 941  0.0   0.1+
020827 670  0.3+  0.4+    020903 557  0.1+  0.2+    020926 941  0.1+  0.0
020827 704  0.1-  0.4+    020903 658  0.3+  0.4+    020926 941  0.2+  0.1-
020827 670  0.3-  0.6+    020903 658  0.3+  0.5+    020926 941  0.2+  0.1+
020827 670  0.0   0.4-    020903 658  0.1+  0.4+    020926 941  0.0   0.0
020827 848  0.4+  0.0     020903 113  0.4+  0.0     020927 704 (2.9+  0.5-)
020827 848  0.1+  0.4-    020903 113  0.2+  0.1-    020927 704  0.4+  0.2+
020827 848  0.2-  0.0     020903 113  0.2+  0.0     020927 704  0.3+  0.3+
020827 946  0.8+  0.8-    020903 118  0.0   0.2-    020927 704  0.5+  0.9+
020827 946  0.8+  1.4-    020903 113  0.2+  0.1-    020927 704  0.6+  0.6+
020827 946  0.5-  0.6-    020903 118  0.2+  0.2-    020928 A28  0.1+  0.1+
020827 946  0.0   0.1+    020903 557  0.1+  0.2+    020928 A28  0.3+  0.0
020827 941  1.3-  0.6+    020903 557  0.2+  0.1+    020928 A28  0.1-  0.2-
020827 941  0.7-  0.8+    020903 118  0.0   0.0     020928 941  0.3-  0.4-
020827 941  0.9-  0.8+    020903 118  0.0   0.2-    020928 941  0.1-  0.1-
020827 941  0.5-  0.8+    020903 557  0.0   0.2+    020928 A28  0.3+  0.0
020827 966  0.3+  0.5-    020903 557  0.0   0.1+    020928 941  0.0   0.0
020827 966  0.1+  0.9-    020903 557  0.1-  0.2+    020928 941  0.1+  0.1+
020827 966  0.2+  0.2-    020904 557  0.1+  0.0     020928 A28  0.1+  0.1+
020827 J95  0.4+  0.0     020904 557  0.2+  0.1+    020928 941  0.0   0.1+
020827 J95  0.2+  0.0     020904 557  0.2+  0.1+    020928 A28  0.1+  0.6+
020827 J95  0.4+  0.2-    020904 670  0.4+  0.2-    020929 240  0.1-  0.1-
020827 170  0.8-  0.2+    020904 670  0.4+  0.1-    020929 240  0.0   0.1-
020827 170  1.4-  0.4+    020904 670  0.6+  0.2+    020929 240  0.3+  0.1-
020827 170  1.1-  0.8+    020905 176  0.0   0.3-    020930 118  0.1+  0.2+
020827 170  1.1-  0.6+    020905 176  0.1+  0.0     020930 118  0.5+  0.1-
020827 J95  0.1+  0.0     020905 176  0.1+  0.3-    020930 469  0.3-  0.3+
020827 J95  0.0   0.0     020908 848  0.4+  0.4-    020930 628  0.4-  0.3+
020828 704  0.9+  0.3+    020908 848  0.6+  0.7-    020930 469  0.2-  0.0
020828 704  0.6+  0.6+    020908 848  0.6+  0.8-    020930 628  0.1+  0.2+
020828 704  0.6+  0.3+    020908 J95  0.1+  0.2-    020930 469  0.0   0.2-
020828 704  0.2+  0.1+    020908 J95  0.1-  0.1-    020930 215  0.0   0.2+
020828 704  0.3+  0.4+    020908 J95  0.1+  0.0     020930 215  0.1+  0.2+
020828 649  0.0   0.0     020909 670  0.3+  0.2-    020930 215  0.1+  0.1+
020828 704  0.3+  0.1+    020909 670  0.2-  0.4-    020930 469  0.1-  0.1+
020828 704  0.1+  0.3+    020910 848  0.3+  0.0     020930 628  0.3+  0.1-
020828 649  0.5+  0.0     020910 848  0.6-  0.9-    020930 628  0.3-  0.5+
020828 704  0.3+  0.1-    020910 170  0.8+  0.5+    020930 557  0.1-  0.0
020828 848  0.5+  0.4-    020910 170 (5.2-  3.2-)   020930 557  0.1+  0.0
020828 848  0.9+  0.3+    020911 848  0.5-  0.5-    020930 557  0.1-  0.0
020828 649  0.1-  0.2+    020911 848  0.5+  0.6+    020930 557  0.1+  0.1+
020828 848  0.2+  0.5-    020911 848  0.5+  0.3+    021001 557  0.0   0.0
020828 848  0.9+  0.0     020912 118  0.7-  0.1+    021001 118  0.2+  0.0
020828 118  0.4-  0.1-    020912 118  0.1+  0.5-    021001 118  0.0   0.1+
020828 118  0.3-  0.3+    020912 118  0.1+  0.3-    021001 557  0.0   0.0
020828 118  0.2-  0.4+    020912 628  0.2+  0.1-    021001 557  0.1+  0.0
020828 941  0.9-  0.5+    020912 628  0.2+  0.1-    021001 557  0.1+  0.1+
020828 941  0.4+  0.3+    020912 628  0.1+  0.2-    021003 300  0.3+  0.8-
020828 941  1.0-  0.4+    020912 628  0.1-  0.0     021003 300  0.2+  0.5-
020828 941  0.6-  0.5+    020912 941  0.4-  0.2-    021003 300  0.7+  0.2+
020828 J95  0.1-  0.2+    020912 941  0.5-  0.3-    021003 300  0.4+  0.1-
020828 J95  0.3+  0.2-    020912 941  0.4-  0.2-    021005 941  0.3-  0.4+
020828 J95  0.2+  0.2+    020912 941  0.2-  0.2-    021005 941  0.2-  0.3+
020828 J95  0.1+  0.1+    020912 941  0.3-  0.5-    021005 941  0.3-  0.3+
020829 941  0.5-  0.7+    020913 215  0.1+  0.1-    021005 941  0.6+  0.6+
020829 941  0.3-  0.6+    020913 215  0.1-  0.3-    021005 941  0.1-  0.7+
020829 941  0.7-  0.6+    020913 215  0.2+  0.3-    021006 170  0.6+  0.1-
020829 941  0.2-  0.6+    020914 469  0.0   0.3-    021006 170  0.4+  0.1+
020829 941  0.2-  0.2+    020914 469  0.1+  0.3-    021006 170  0.1+  0.2+
020830 649  0.0   0.0     020914 469  0.0   0.1-    021006 170  0.6-  0.3+
020830 649  0.1+  0.0     020914 469  0.0   0.2-    021006 170  0.0   0.0
020830 649  0.3+  0.4-    020914 469  0.2+  0.0     021006 J93  0.8-  0.6+
020830 848  0.9-  0.7-    020914 170  0.2-  0.4-    021006 J93  0.8-  0.2+
020830 848  0.1+  0.2+    020914 170  0.0   1.1-    021007 670  0.5+  0.2+
020830 848  0.1+  1.0-    020914 170  0.1+  0.9-    021007 670  0.1+  0.1+
020830 157  0.3+  0.5-    020914 170  0.2-  1.0-    021007 587  0.1-  0.3+
020830 557  0.0   0.1+    020916 J95  0.2-  0.1-    021007 587  0.0   0.5+
020830 557  0.1-  0.2+    020916 J95  0.0   0.2-    021007 587  0.1+  0.4+
020830 557  0.2-  0.1+    020916 J95  0.1-  0.3-    021007 587  0.0   0.2+
020830 557  0.1-  0.1+    020917 711  0.4-  0.2-

